sat.trackr.live / text

‹ back to catalog

BEIDOU-2 G4 (C04)

NORAD 37210 · 2010-057A

PAYLOAD ACTIVE UNKNOWN

§ Identity

Operator
Country
PRC
Launch date
2010-10-31
Launch site
XICLF
Launch vehicle
Mass (kg)
RCS (m²)
19.95

Purposes: comms, nav

External: N2YO · Heavens-Above · Gunter

§ Orbital elements

Epoch: 2026-05-25T02:47:35.782368Z

Period
1,436.10 min
Inclination
3.5923°
Eccentricity
0.0005496
Mean motion
1.00271823 rev/d
Perigee alt
35,763.4 km
Apogee alt
35,809.8 km
Semi-major
42,164.7 km
B*
0.0000e+0
RAAN
69.0845°
Arg perigee
208.1233°
Mean anomaly
167.3853°
Rev number
5,706

§ Raw data

BEIDOU-2 G4 (C04)1 37210U 10057A   26145.11638637 -.00000114  00000+0  00000+0 0  99942 37210   3.5923  69.0845 0005496 208.1233 167.3853  1.00271823 57067

JSON: /api/v1/satellites/37210 · /tle

For live sub-satellite position, see the globe view (requires WebGL).

§ Visibility from observer

Set your observer location to see the next 7 days of passes ≥ 10°. The values pass through the URL so the page stays shareable.

No JS? Fill the form by hand. The geolocation button needs JavaScript.